#timestamp,LO_Frequency,Hit,StdDev 
1552075215.7,286047011.1,N
1552075235.6,286047013.1,N
1552075255.4,286047011.0,N
1552075275.3,286047014.0,Y
1552075295.1,286047003.1,P
1552075315.8,286047005.5,N
1552075335.7,286047005.4,N
1552075355.5,286047005.2,N
1552075375.4,286047005.1,N
1552075395.2,286047007.6,Y
1552075415.0,286047001.7,P
1552075415.9,286047001.7,N
1552075435.8,286047004.4,N
1552075455.6,286047004.0,N
1552075475.5,286047004.0,N
1552075495.3,286047004.4,Y
1552075515.1,286046998.4,P
1552075535.9,286047000.0,N
1552075555.7,286046999.8,N
1552075575.5,286047000.2,N
1552075595.4,286046999.8,N
1552075615.2,286047000.4,N
1552075635.1,286046999.7,N
1552075636.0,286046999.7,N
1552075655.8,286047002.4,N
1552075675.6,286047002.6,N
1552075695.5,286047002.1,N
1552075715.3,286047003.5,N
1552075735.2,286047003.0,N
1552075755.9,286047005.9,Y
1552075775.7,286047005.4,P
1552075795.6,286047005.4,N
1552075815.4,286047007.1,P
1552075835.2,286047004.6,N
1552075855.1,286047004.7,N
1552075856.0,286047004.7,N
1552075875.8,286047007.2,Y
1552075895.7,286047000.4,P
1552075915.5,286046998.1,N
1552075935.3,286046998.6,N
1552075955.2,286046998.8,N
1552075975.0,286046998.8,N
1552075975.9,286046998.8,N
1552075995.8,286046998.3,N
1552076015.6,286046999.4,N
1552076035.4,286046998.8,N
1552076055.3,286046996.8,N
1552076075.1,286046998.8,N
1552076095.9,286046997.0,N
1552076115.7,286047000.8,N
1552076135.5,286047002.8,N
1552076155.4,286047002.2,N
1552076175.2,286047001.9,N
1552076195.0,286047000.6,N
1552076195.9,286047000.6,N
1552076215.8,286047000.4,N
1552076235.6,286047001.2,N
1552076255.5,286046996.5,N
1552076275.3,286046995.8,N
1552076295.1,286046993.5,Y
1552076315.9,286046992.5,P
1552076335.7,286046990.5,N
1552076355.5,286046989.0,N
1552076375.4,286046985.9,Y
1552076395.2,286046992.5,P
1552076415.1,286046990.7,P
1552076416.0,286046990.7,P
1552076435.8,286046991.6,Y
1552076455.6,286046995.9,P
1552076475.5,286046994.1,N
1552076495.3,286046994.3,P
1552076515.2,286046990.2,Y
1552076535.9,286046999.4,P
1552076555.7,286047001.0,N
1552076575.6,286046999.6,N
1552076595.4,286046998.7,N
1552076615.3,286046995.3,N
1552076635.1,286046995.1,N
1552076636.0,286046995.1,N
1552076655.8,286046997.5,N
1552076675.7,286046996.2,N
1552076695.5,286046994.4,N
1552076715.3,286046992.0,Y
1552076735.2,286046994.8,P
1552076755.0,286046992.5,P
1552076755.9,286046992.5,P
1552076775.8,286046992.6,Y
1552076795.6,286046997.0,P
1552076815.4,286046998.6,N
1552076835.3,286046998.3,N
1552076855.1,286046999.7,N
1552076875.9,286047001.2,N
1552076895.7,286047000.8,N
1552076915.5,286046998.8,N
1552076935.4,286047001.1,N
1552076955.2,286047004.4,N
1552076975.0,286047003.8,N
1552076975.9,286047003.8,N
1552076995.8,286047005.5,N
1552077015.6,286047004.5,N
1552077035.5,286047007.2,N
1552077055.3,286047008.3,N
1552077075.1,286047010.2,N
1552077095.9,286047011.6,N
1552077115.7,286047013.3,N
1552077135.5,286047015.0,N
1552077155.4,286047016.8,Y
1552077175.2,286047011.3,P
1552077195.1,286047013.8,P
1552077196.0,286047013.8,P
1552077215.8,286047011.0,N
1552077235.6,286047013.8,Y
1552077255.5,286047003.7,P
1552077275.3,286047003.4,N
1552077295.2,286047007.4,N
1552077315.0,286047006.4,N
1552077315.9,286047006.4,N
1552077335.8,286047007.3,N
1552077355.6,286047008.8,Y
1552077375.4,286047002.0,P
1552077395.3,286047002.1,N
1552077415.1,286047002.8,N
1552077435.9,286047004.1,N
1552077455.7,286047006.0,Y
1552077475.5,286047001.5,P
1552077495.4,286047004.2,P
1552077515.2,286047003.8,P
1552077535.0,286047005.9,Y
1552077535.9,286047005.9,P
1552077555.8,286047002.2,N
1552077575.6,286047001.3,N
1552077595.5,286047000.9,N
1552077615.3,286046999.1,N
1552077635.1,286046998.6,N
1552077655.9,286046998.4,N
1552077675.7,286046996.5,N
1552077695.6,286046999.6,N
1552077715.4,286046996.5,N
1552077735.2,286046999.1,N
1552077755.1,286047001.1,N
1552077756.0,286047001.1,N
1552077775.8,286047002.4,N
1552077795.6,286046999.7,N
1552077815.5,286047001.7,N
1552077835.3,286047001.5,N
1552077855.2,286047004.0,N
1552077875.9,286047004.2,N
1552077895.7,286047005.6,N
1552077915.6,286047005.0,N
1552077935.4,286047004.8,N
1552077955.2,286047007.6,N
1552077975.1,286047005.4,N
1552077976.0,286047005.4,N
1552077995.8,286047005.1,N
1552078015.7,286047003.2,N
1552078035.5,286047005.6,N
1552078055.3,286047003.8,N
1552078075.2,286047001.8,N
1552078095.0,286047001.7,N
1552078095.9,286047001.7,N
1552078115.8,286047004.0,N
1552078135.6,286047001.7,N
1552078155.4,286046999.7,N
1552078175.3,286047002.4,N
1552078195.1,286047000.0,N
1552078215.8,286047002.5,N
1552078235.7,286047004.4,N
1552078255.5,286047001.3,N
1552078275.4,286047002.5,N
1552078295.2,286047004.0,N
1552078315.0,286047001.9,N
1552078315.9,286047001.9,N
1552078335.8,286047001.9,N
1552078355.6,286047000.1,N
1552078375.4,286047001.6,N
1552078395.3,286047001.6,N
1552078415.1,286047001.4,N
1552078435.9,286047004.0,N
1552078455.7,286047006.0,Y
1552078475.5,286047001.5,P
1552078495.4,286047001.5,N
1552078515.2,286047005.6,P
1552078535.0,286047004.7,N
1552078535.9,286047004.7,N
1552078555.8,286047005.7,Y
1552078575.6,286047002.3,P
1552078595.5,286047000.0,N
1552078615.3,286046998.5,N
1552078635.1,286047000.3,N
1552078655.9,286047002.8,N
1552078675.7,286047002.6,N
1552078695.6,286047002.8,N
1552078715.4,286046999.0,N
1552078735.2,286046997.4,N
1552078755.1,286046997.6,N
1552078756.0,286046997.6,N
1552078775.8,286046994.9,N
1552078795.6,286046994.9,N
